[[{"header":{"parameterUnit":"m.s-1","parameterCategory":1,"la1":30.2991,"la2":30.254,"lo1":-89.0895,"lo2":-89.0444,"dy":0.0017,"dx":0.0017,"nx":28,"ny":28,"refTime":"2024-06-10T03:00:00:Z","depth":0,"parameterNumber":2,"parameterNumberName":"U-component_of_WINDS"},"data":[0,0,0,0,0,0,0,0,0,0,0,0,0,0,0,0,0,0,0,0,0,0,0,0,0,0,0,0,0,0,0,0,0,0,0,0,0,0,0,0,0,0,0,0,0,0,0,0,0,0,0,0,0,0,0,0,0,0,4.9271,4.9273,0,4.9433,4.9435,4.9437,4.9377,4.9374,4.937,4.9366,4.9536,4.9544,4.9552,0,0,0,0,0,0,0,0,0,0,0,0,0,4.8911,4.8918,4.9271,4.9273,4.9275,4.9433,4.9435,4.9437,4.9378,4.9373,4.9369,4.9365,4.9534,4.9543,4.9553,0,0,0,0,0,0,0,0,0,0,0,0,0,4.907,4.892,4.927,4.9264,4.9265,4.9432,4.9435,4.9438,4.9379,4.9373,4.9368,4.9363,4.953,4.9542,4.9554,4.9738,0,0,4.959,4.9595,0,0,0,0,0,0,0,0,4.9061,4.9083,4.9263,4.9265,4.9266,4.9379,4.9371,4.9539,4.938,4.9336,4.9366,4.936,4.9489,4.9504,4.9546,4.9746,4.9753,4.9591,4.9599,4.9604,4.9607,0,0,0,0,0,0,0,4.905,4.9076,4.9335,4.9266,4.9268,4.9254,4.927,4.9402,4.9441,4.9339,4.9335,4.9355,4.9489,4.9535,4.955,4.9756,4.9591,4.9602,4.9609,4.9614,5.0112,5.0118,0,0,0,0,0,0,4.9038,4.9067,4.933,4.934,4.9148,4.9265,4.9283,4.9349,4.944,4.9448,4.936,4.9352,4.9517,4.9536,4.9556,4.9775,4.9604,4.9615,4.9622,5.0106,5.0114,5.012,0,0,0,0,0,0,4.9031,4.9062,4.9323,4.9203,4.9235,4.9277,4.9351,4.9355,4.9401,4.9455,4.9462,4.94,4.9514,4.9539,4.9692,4.978,4.962,4.9631,5.0099,5.0109,5.0117,5.0217,0,0,0,0,0,0,4.9021,4.906,4.913,4.9205,4.9241,4.9457,4.9356,4.9362,4.9421,4.9413,4.9495,4.9503,4.9511,4.9675,4.9704,4.9794,4.964,5.0091,5.0103,5.0114,5.0206,5.0228,5.0248,0,0,0,0,0,4.9008,4.9153,4.9134,4.9166,4.933,4.9462,4.9483,4.9489,4.9429,4.9499,4.9534,4.95,4.9766,4.9691,4.9724,4.9818,5.0086,5.01,5.0113,5.0197,5.0224,5.0247,0,0,0,0,0,0,4.9088,4.9162,4.9142,4.9315,4.9383,4.9452,4.9541,4.9518,4.9605,4.9593,4.9598,4.9617,4.9774,4.9812,4.9727,5.0,4.9917,4.9938,4.9969,4.9996,5.0016,5.0003,4.965,0,0,0,0,0,4.9126,4.9227,4.9286,4.9433,4.9468,4.9499,4.9557,4.9555,4.9626,4.9655,4.97,4.9771,4.987,4.9936,5.003,5.0212,5.0228,5.0293,5.0314,5.0331,5.0348,5.0445,5.0474,5.0165,5.0165,5.0165,0,0,4.9205,4.9258,4.9322,4.9451,4.9503,4.9607,4.9524,4.9638,4.9715,4.9672,4.9819,4.9855,4.9934,5.0102,5.0178,5.0138,5.0437,5.0348,5.0361,5.0369,5.0462,5.0491,5.0517,5.0175,5.0173,5.0172,0,0,4.9402,4.9453,4.958,4.9634,4.9713,4.9732,4.9763,4.9836,4.9858,5.0005,4.9974,5.0067,5.0238,5.0295,5.0346,5.0564,5.0536,5.0595,5.0703,5.0797,5.0822,5.0843,5.0918,5.0946,5.0613,5.0613,5.0613,0,4.9491,4.9646,4.9649,4.9765,4.9822,4.9787,4.9915,4.9967,5.0074,5.0115,5.0068,5.0281,5.0332,5.0511,5.0564,5.0608,5.0642,5.0585,5.0818,5.0839,5.086,5.0931,5.096,5.0619,5.0619,5.0618,5.0617,0,4.975,4.9858,4.9951,5.0053,5.0121,5.0243,5.0264,5.0333,5.0326,5.035,5.05,5.056,5.0664,5.0707,5.0703,5.0886,5.0858,5.0816,5.0732,5.0895,5.0963,5.0991,5.0629,5.0626,5.0625,5.0623,0,0,5.0002,5.0102,5.0136,5.0181,5.0266,5.035,5.047,5.0571,5.0629,5.0704,5.0804,5.095,5.0909,5.0968,5.0969,5.1052,5.1218,5.0999,5.1,5.1035,5.1422,5.1452,5.1483,5.12,5.1206,5.121,5.1414,0,5.0203,5.0412,5.0418,5.061,5.0709,5.0676,5.0781,5.0844,5.0871,5.0959,5.0988,5.109,5.1031,5.1065,5.1146,5.1181,5.1295,5.1166,5.1293,5.1297,5.1271,5.1519,5.1552,5.1741,5.1441,5.1445,5.1449,0,5.0467,5.0548,5.0749,5.0817,5.0859,5.0953,5.1045,5.113,5.1201,5.1214,5.1279,5.1267,5.139,5.1304,5.1472,5.1384,5.1437,5.1461,5.1469,5.1479,5.1381,5.1534,5.1802,5.183,5.1491,5.1487,5.1484,0,5.0627,5.0787,5.0927,5.0967,5.1051,5.1117,5.1156,5.1221,5.1281,5.1363,5.1401,5.1497,5.1548,5.1623,5.1637,5.1573,5.1805,5.1721,5.1818,5.1818,5.1867,5.1863,5.2145,5.1905,5.1905,5.1904,5.1904,0,5.085,5.0974,5.0999,5.1086,5.1223,5.1229,5.1365,5.1398,5.1457,5.1549,5.1529,5.1615,5.163,5.1721,5.1733,5.1869,5.1894,5.1907,5.1909,5.1908,5.1906,5.194,5.1927,5.1912,5.191,5.1909,5.1907,0,5.1052,5.1074,5.1224,5.1291,5.1311,5.1409,5.1466,5.1549,5.1572,5.1689,5.1717,5.1754,5.186,5.1882,5.2007,5.2015,5.2177,5.2167,5.2152,5.215,5.2246,5.2235,5.2558,5.2599,5.2335,5.2337,5.2339,0,5.1191,5.1285,5.1362,5.1421,5.1462,5.1559,5.1619,5.1629,5.1692,5.178,5.1851,5.1954,5.2036,5.2206,5.2245,5.234,5.2331,5.2437,5.2345,5.234,5.2329,5.2322,5.233,5.2454,5.2457,5.2459,5.2461,0,5.1437,5.1442,5.153,5.1621,5.1693,5.1766,5.1835,5.1885,5.1904,5.1976,5.2083,5.2146,5.2273,5.2375,5.247,5.251,5.2489,5.249,5.2517,5.2516,5.2502,5.2508,5.2197,5.2482,5.248,5.2478,5.2477,5.2476,5.161,5.1691,5.1756,5.1854,5.1906,5.1971,5.2051,5.2084,5.2172,5.2275,5.2276,5.2391,5.2459,5.2584,5.263,5.2721,5.2688,5.2728,5.2738,5.2747,5.2754,5.249,5.2739,5.2739,5.2738,5.2738,5.2737,0,5.1851,5.1892,5.1981,5.2077,5.2154,5.2126,5.2201,5.2267,5.2368,5.2433,5.2514,5.2635,5.2733,5.278,5.2877,5.294,5.2933,5.2965,5.2959,5.2968,5.278,5.2745,5.2969,5.2969,5.2969,5.2969,5.2969,5.2969,5.1986,5.2121,5.2134,5.2295,5.2335,5.2446,5.2491,5.255,5.2601,5.2737,5.2818,5.2847,5.2904,5.3005,5.3094,5.3105,5.314,5.3177,5.3183,5.3006,5.2982,5.2959,5.2927,5.3185,5.3186,5.3364,5.3365,5.3367]},{"header":{"parameterUnit":"m.s-1","parameterCategory":1,"la1":30.2991,"la2":30.254,"lo1":-89.0895,"lo2":-89.0444,"dy":0.0017,"dx":0.0017,"nx":28,"ny":28,"refTime":"2024-06-10T03:00:00:Z","depth":0,"parameterNumber":3,"parameterNumberName":"V-component_of_WINDS"},"data":[0,0,0,0,0,0,0,0,0,0,0,0,0,0,0,0,0,0,0,0,0,0,0,0,0,0,0,0,0,0,0,0,0,0,0,0,0,0,0,0,0,0,0,0,0,0,0,0,0,0,0,0,0,0,0,0,0,0,1.3062,1.3062,0,1.311,1.3111,1.3111,1.3121,1.312,1.312,1.312,1.3167,1.3168,1.317,0,0,0,0,0,0,0,0,0,0,0,0,0,1.2974,1.2975,1.3062,1.3062,1.3063,1.311,1.3111,1.3111,1.3121,1.312,1.312,1.3119,1.3166,1.3168,1.317,0,0,0,0,0,0,0,0,0,0,0,0,0,1.3016,1.2976,1.3062,1.3073,1.3075,1.311,1.3111,1.3111,1.3121,1.312,1.312,1.3119,1.3165,1.3168,1.317,1.3196,0,0,1.3177,1.3179,0,0,0,0,0,0,0,0,1.3014,1.3019,1.3071,1.3073,1.3074,1.3109,1.3097,1.314,1.3121,1.3103,1.312,1.3119,1.3148,1.3151,1.3162,1.3198,1.32,1.3178,1.3179,1.318,1.3181,0,0,0,0,0,0,0,1.3011,1.3017,1.3081,1.3072,1.3074,1.3075,1.308,1.3105,1.3128,1.3105,1.3106,1.3111,1.3148,1.3159,1.3163,1.3201,1.3178,1.318,1.3181,1.3182,1.3259,1.326,0,0,0,0,0,0,1.3006,1.3015,1.3079,1.3082,1.3042,1.3077,1.3083,1.3098,1.3128,1.3132,1.3112,1.3112,1.3156,1.316,1.3165,1.3196,1.318,1.3182,1.3184,1.3259,1.3259,1.326,0,0,0,0,0,0,1.3004,1.3012,1.3077,1.3049,1.3057,1.3079,1.3096,1.31,1.3111,1.3133,1.3137,1.3119,1.3155,1.3161,1.3188,1.3198,1.3183,1.3186,1.3258,1.3259,1.326,1.3259,0,0,0,0,0,0,1.3002,1.3011,1.3022,1.3049,1.3059,1.3101,1.3097,1.3101,1.3115,1.3115,1.3141,1.3144,1.3155,1.3184,1.319,1.3201,1.3188,1.3257,1.3258,1.3259,1.3258,1.326,1.3261,0,0,0,0,0,1.2998,1.302,1.3023,1.303,1.3073,1.3102,1.3107,1.312,1.3116,1.3126,1.314,1.3144,1.3196,1.3187,1.3194,1.3205,1.3257,1.3258,1.3259,1.3258,1.326,1.3261,0,0,0,0,0,0,1.2993,1.3024,1.3027,1.3058,1.3077,1.3103,1.3117,1.3122,1.3142,1.3141,1.3155,1.3161,1.3186,1.3198,1.3188,1.3231,1.3226,1.3228,1.3222,1.3224,1.3226,1.3222,1.319,0,0,0,0,0,1.2996,1.3017,1.3042,1.3067,1.3077,1.3095,1.3108,1.3116,1.3136,1.3144,1.316,1.3179,1.3199,1.3212,1.3232,1.326,1.3265,1.3271,1.3272,1.3273,1.3276,1.329,1.3292,1.3264,1.3264,1.3264,0,0,1.3001,1.302,1.3033,1.3067,1.3082,1.3103,1.3102,1.3124,1.3139,1.3147,1.3174,1.3186,1.3207,1.3234,1.3247,1.3245,1.3284,1.3275,1.3276,1.3277,1.3291,1.3294,1.3296,1.3265,1.3265,1.3265,0,0,1.3022,1.3039,1.3061,1.3076,1.31,1.3112,1.3117,1.3142,1.3151,1.3178,1.3183,1.3201,1.3236,1.3251,1.3263,1.3287,1.329,1.3293,1.33,1.3314,1.3316,1.3318,1.3325,1.3328,1.3295,1.3295,1.3295,0,1.3025,1.3058,1.3071,1.3093,1.3107,1.3115,1.3137,1.3151,1.318,1.3189,1.3186,1.3229,1.3244,1.3274,1.328,1.329,1.3295,1.329,1.3314,1.3317,1.3319,1.3326,1.3329,1.3295,1.3295,1.3295,1.3295,0,1.306,1.3082,1.3097,1.3125,1.3141,1.3162,1.3178,1.3191,1.3197,1.3209,1.3235,1.3253,1.3276,1.3284,1.329,1.3314,1.3312,1.3312,1.3307,1.3321,1.3328,1.3331,1.3295,1.3295,1.3295,1.3295,0,0,1.308,1.3114,1.3119,1.3131,1.3158,1.3174,1.3195,1.3219,1.323,1.3249,1.3266,1.3294,1.3294,1.3308,1.3315,1.3327,1.3343,1.3325,1.3326,1.3327,1.3369,1.3369,1.3372,1.3345,1.3346,1.3347,1.3367,0,1.3103,1.3142,1.3154,1.3186,1.3206,1.3213,1.3231,1.3248,1.3259,1.3276,1.3288,1.3308,1.3306,1.3314,1.3326,1.3339,1.3352,1.3338,1.336,1.3361,1.3355,1.3376,1.3376,1.3395,1.337,1.3371,1.3371,0,1.3135,1.3155,1.3189,1.3212,1.322,1.3237,1.3258,1.3275,1.3294,1.3301,1.3315,1.3321,1.3342,1.3336,1.3363,1.3353,1.3363,1.3371,1.3371,1.3374,1.3367,1.3379,1.3402,1.3404,1.3376,1.3375,1.3375,0,1.3145,1.318,1.3205,1.3215,1.3242,1.3253,1.3264,1.3283,1.3295,1.3314,1.3322,1.3342,1.3353,1.3367,1.3378,1.3373,1.3405,1.34,1.341,1.341,1.3416,1.3416,1.3441,1.3423,1.3423,1.3423,1.3423,0,1.3169,1.319,1.321,1.3225,1.3247,1.326,1.3281,1.3293,1.3309,1.3325,1.3332,1.3347,1.3361,1.3377,1.3386,1.3407,1.3412,1.3417,1.3419,1.3416,1.3416,1.3423,1.3422,1.3424,1.3424,1.3424,1.3423,0,1.3184,1.3199,1.3226,1.3249,1.3255,1.327,1.3289,1.3303,1.3314,1.3334,1.334,1.3356,1.3376,1.3388,1.3413,1.3419,1.3441,1.3443,1.3435,1.3436,1.3445,1.3444,1.3476,1.348,1.346,1.346,1.346,0,1.3199,1.3215,1.3239,1.3251,1.3263,1.3282,1.3294,1.3307,1.332,1.3341,1.3352,1.3373,1.3389,1.342,1.3433,1.3452,1.3453,1.3463,1.3456,1.3453,1.3453,1.3452,1.3453,1.3464,1.3464,1.3465,1.3465,0,1.3223,1.3229,1.3248,1.3268,1.3284,1.33,1.3317,1.3326,1.3341,1.3354,1.3375,1.3388,1.3413,1.3432,1.3451,1.3462,1.3465,1.3467,1.347,1.3467,1.3462,1.3464,1.3438,1.3466,1.3466,1.3466,1.3466,1.3466,1.3238,1.3252,1.3271,1.3291,1.3305,1.332,1.3334,1.3346,1.3363,1.3385,1.3391,1.3412,1.3428,1.3455,1.3465,1.3481,1.3479,1.3484,1.3486,1.3486,1.3486,1.3459,1.3484,1.3484,1.3484,1.3484,1.3484,0,1.3262,1.3274,1.3292,1.3315,1.3331,1.3333,1.3351,1.3364,1.3382,1.3398,1.3414,1.3436,1.3454,1.3469,1.3487,1.3497,1.3499,1.3501,1.35,1.3502,1.3487,1.3482,1.3499,1.3499,1.3499,1.3499,1.3499,1.3499,1.3276,1.3299,1.3307,1.3336,1.3348,1.3369,1.3379,1.3392,1.3405,1.343,1.3445,1.3454,1.3469,1.3488,1.3505,1.3508,1.3514,1.3516,1.352,1.3505,1.3504,1.3502,1.3497,1.3518,1.3518,1.3534,1.3534,1.3535]}]]